Hourly Data Report for January 11, 2017

TORONTO CITY
ONTARIO

43°40'00.000" N
79°24'00.000" W
112.50 m
6158355
71508
XTO

Download Data

Hourly Data (January 2017)
Hourly Data Report for January 11, 2017
TIME
LST
Temp Definition
°C
Dew Point Definition
°C
Rel Hum Definition
%
Precip. Amount Definition
mm

Wind Dir Definition
10's deg

Wind Spd Definition
km/h
Visibility Definition
km
Stn Press Definition
kPa
Hmdx Definition


Wind Chill Definition


Weather Definition


00:00 6.8 4.4 84 0.2 LegendMM LegendMM   98.41     LegendNANA
01:00 6.6 5.0 90 0.4 LegendMM LegendMM   98.44     LegendNANA
02:00 4.7 0.8 76 0.7 LegendMM LegendMM   98.95     LegendNANA
03:00 4.9 -0.4 69 0.0 LegendMM LegendMM   99.30     LegendNANA
04:00 4.5 -1.3 66 0.0 LegendMM LegendMM   99.49     LegendNANA
05:00 3.8 -2.3 64 0.0 LegendMM LegendMM   99.71     LegendNANA
06:00 3.2 -3.2 63 0.0 LegendMM LegendMM   99.89     LegendNANA
07:00 2.5 -3.5 64 0.0 LegendMM LegendMM   100.05     LegendNANA
08:00 2.2 -3.8 64 0.0 LegendMM LegendMM   100.26     LegendNANA
09:00 2.4 -3.9 63 0.0 LegendMM LegendMM   100.41     LegendNANA
10:00 3.0 -3.6 62 0.0 LegendMM LegendMM   100.52     LegendNANA
11:00 3.3 -2.3 67 0.0 LegendMM LegendMM   100.58     LegendNANA
12:00 3.0 -1.9 70 0.0 LegendMM LegendMM   100.47     LegendNANA
13:00 3.7 -1.3 70 0.0 LegendMM LegendMM   100.39     LegendNANA
14:00 4.1 -1.4 67 0.0 LegendMM LegendMM   100.22     LegendNANA
15:00 4.7 -1.4 64 0.0 LegendMM LegendMM   100.12     LegendNANA
16:00 5.9 -2.8 54 0.0 LegendMM LegendMM   100.09     LegendNANA
17:00 5.5 -1.0 63 0.0 LegendMM LegendMM   99.98     LegendNANA
18:00 5.7 -0.6 64 0.0 LegendMM LegendMM   99.96     LegendNANA
19:00 6.0 -1.0 61 0.0 LegendMM LegendMM   99.87     LegendNANA
20:00 6.0 0.0 65 0.0 LegendMM LegendMM   99.76     LegendNANA
21:00 6.0 0.7 69 0.0 LegendMM LegendMM   99.62     LegendNANA
22:00 6.6 1.6 71 0.0 LegendMM LegendMM   99.52     LegendNANA
23:00 7.7 4.1 78 0.2 LegendMM LegendMM   99.42     LegendNANA

Notes on Data Quality.

Legend

  • E = Estimated
  • M = Missing
  • NA = Not Available*
  • [empty] = Indicates an unobserved value
Date modified: